[[{"header":{"parameterUnit":"m.s-1","parameterCategory":1,"la1":30.2992,"la2":30.254,"lo1":-89.0895,"lo2":-89.0443,"dy":0.0025,"dx":0.0025,"nx":19,"ny":19,"refTime":"2026-05-13T09:00:00:Z","depth":0,"parameterNumber":2,"parameterNumberName":"U-component_of_WINDS"},"data":[0,0,0,1.7195,1.7198,1.7301,1.7301,1.7446,1.7447,0,0,0,0,0,0,0,0,0,0,0,1.717,1.7171,1.7195,1.7198,1.7301,1.7301,1.7446,1.7447,0,0,0,0,0,0,0,0,0,0,0,1.7169,1.7171,1.7172,1.7198,1.7301,1.7301,1.7445,1.7364,0,0,0,0,0,0,0,0,0,0,1.7262,1.7242,1.717,1.7172,1.7199,1.7301,1.7302,1.736,1.7369,1.7404,0,1.7434,0,1.7443,1.7458,1.7458,0,0,0,1.7195,1.7234,1.7257,1.7172,1.72,1.7301,1.7254,1.7365,1.7375,1.7416,1.7436,1.7441,1.7445,1.7459,1.7459,1.7665,1.7666,0,0,1.7189,1.7191,1.725,1.7264,1.7246,1.725,1.7257,1.7371,1.7393,1.7436,1.7444,1.7448,1.746,1.7461,1.7664,1.7665,0,0,0,1.7175,1.7188,1.7208,1.7259,1.7276,1.7253,1.7261,1.7388,1.7394,1.7445,1.7449,1.7461,1.7462,1.7663,1.7664,1.772,0,0,0,1.7171,1.7179,1.7205,1.7208,1.7274,1.7333,1.7276,1.7387,1.7399,1.7448,1.7461,1.7464,1.7662,1.7664,1.7716,1.7746,0,0,0,1.7162,1.7178,1.7194,1.7208,1.7252,1.7331,1.7344,1.7389,1.7402,1.7458,1.7464,1.7661,1.7663,1.7712,1.774,1.7802,0,0,0,1.7152,1.7243,1.7195,1.7298,1.7251,1.7364,1.7343,1.7427,1.7482,1.7461,1.7662,1.7664,1.7711,1.7737,1.7798,1.7853,1.7877,0,0,1.7268,1.7257,1.7317,1.7278,1.7399,1.7348,1.7479,1.7528,1.7533,1.7621,1.7626,1.7717,1.774,1.7801,1.8005,1.8024,0,0,0,1.7355,1.7399,1.743,1.7482,1.752,1.7557,1.7586,1.7605,1.7679,1.7578,1.7756,1.7769,1.7805,1.7832,1.7847,1.7878,1.7677,1.7676,1.7676,1.7522,1.7522,1.7623,1.7636,1.7686,1.7715,1.7757,1.7788,1.7773,1.7816,1.7842,1.7966,1.7997,1.8009,1.8042,1.7871,1.7872,1.7872,1.7872,1.7692,1.7755,1.7734,1.7824,1.7824,1.7901,1.7934,1.7922,1.7995,1.7946,1.7977,1.7924,1.8029,1.8058,1.7876,1.7875,1.7875,1.7875,1.7874,1.7802,1.7832,1.7852,1.7927,1.7986,1.7997,1.8068,1.8066,1.8065,1.8096,1.8125,1.8124,1.8124,1.811,1.811,1.8111,1.8111,1.8112,1.8112,1.7908,1.7929,1.7988,1.8037,1.8071,1.8115,1.8146,1.818,1.8218,1.8211,1.8211,1.8194,1.8039,1.8,1.8119,1.8117,1.8116,1.8116,1.8115,1.8081,1.8042,1.8133,1.8166,1.8225,1.8285,1.8282,1.8351,1.8379,1.8415,1.8392,1.8277,1.8266,1.8253,1.8222,1.839,1.839,1.839,1.839,1.8174,1.8168,1.8261,1.8315,1.8368,1.8375,1.8481,1.8508,1.8529,1.8547,1.8523,1.848,1.8467,1.8464,1.8447,1.8418,1.8632,1.8632,1.8633,1.8281,1.828,1.8369,1.8388,1.8434,1.8475,1.8575,1.8641,1.8657,1.8643,1.8562,1.8551,1.8483,1.846,1.8443,1.8417,1.8362,0,0]},{"header":{"parameterUnit":"m.s-1","parameterCategory":1,"la1":30.2992,"la2":30.254,"lo1":-89.0895,"lo2":-89.0443,"dy":0.0025,"dx":0.0025,"nx":19,"ny":19,"refTime":"2026-05-13T09:00:00:Z","depth":0,"parameterNumber":3,"parameterNumberName":"V-component_of_WINDS"},"data":[0,0,0,-2.5982,-2.5985,-2.6118,-2.6119,-2.6283,-2.6284,0,0,0,0,0,0,0,0,0,0,0,-2.594,-2.5941,-2.5982,-2.5985,-2.6118,-2.6119,-2.6282,-2.6284,0,0,0,0,0,0,0,0,0,0,0,-2.5939,-2.5941,-2.5942,-2.5986,-2.6118,-2.6119,-2.6282,-2.6184,0,0,0,0,0,0,0,0,0,0,-2.6056,-2.6014,-2.594,-2.5942,-2.5987,-2.6118,-2.6119,-2.6179,-2.619,-2.622,0,-2.6247,0,-2.6268,-2.6295,-2.6295,0,0,0,-2.5987,-2.6005,-2.6043,-2.5942,-2.5988,-2.6118,-2.6059,-2.6185,-2.6197,-2.6234,-2.6249,-2.6255,-2.6271,-2.6296,-2.6296,-2.6466,-2.6467,0,0,-2.598,-2.5962,-2.6035,-2.6051,-2.6031,-2.6055,-2.6063,-2.6193,-2.6207,-2.625,-2.6259,-2.6273,-2.6297,-2.6298,-2.6465,-2.6466,0,0,0,-2.5958,-2.5957,-2.5992,-2.6044,-2.6069,-2.6058,-2.6068,-2.6201,-2.6215,-2.6261,-2.6275,-2.6298,-2.63,-2.6465,-2.6466,-2.6483,0,0,0,-2.5953,-2.5944,-2.5989,-2.5979,-2.6066,-2.6137,-2.6074,-2.6206,-2.6221,-2.6274,-2.6298,-2.6301,-2.6464,-2.6465,-2.6481,-2.6494,0,0,0,-2.5932,-2.5941,-2.596,-2.5978,-2.6035,-2.6135,-2.6156,-2.6209,-2.623,-2.6295,-2.6302,-2.6463,-2.6465,-2.6479,-2.6491,-2.6534,0,0,0,-2.5904,-2.5972,-2.5959,-2.6041,-2.6033,-2.6145,-2.6155,-2.6239,-2.6298,-2.6298,-2.6464,-2.6465,-2.6479,-2.6489,-2.6532,-2.6567,-2.658,0,0,-2.598,-2.5981,-2.603,-2.6023,-2.6132,-2.6126,-2.6238,-2.6308,-2.6331,-2.6419,-2.6424,-2.6482,-2.6491,-2.6534,-2.6658,-2.6669,0,0,0,-2.6048,-2.6083,-2.6116,-2.6172,-2.6227,-2.6277,-2.6332,-2.6358,-2.6435,-2.6373,-2.6509,-2.6515,-2.6541,-2.6559,-2.6567,-2.6591,-2.6473,-2.6473,-2.6472,-2.6128,-2.6154,-2.6238,-2.628,-2.6334,-2.6391,-2.6437,-2.6482,-2.6491,-2.6523,-2.6549,-2.6622,-2.6642,-2.6649,-2.6673,-2.657,-2.657,-2.657,-2.657,-2.6242,-2.6296,-2.6309,-2.6394,-2.6421,-2.6493,-2.6551,-2.6555,-2.6626,-2.6604,-2.6628,-2.6601,-2.6659,-2.6681,-2.6572,-2.6571,-2.6571,-2.6571,-2.6571,-2.6298,-2.6328,-2.636,-2.6443,-2.6505,-2.6545,-2.6613,-2.6635,-2.6656,-2.6679,-2.671,-2.671,-2.6713,-2.6693,-2.6693,-2.6693,-2.6693,-2.6694,-2.6694,-2.6343,-2.6378,-2.6433,-2.6499,-2.6538,-2.6593,-2.6651,-2.669,-2.6738,-2.6749,-2.6749,-2.6756,-2.666,-2.6635,-2.6698,-2.6697,-2.6696,-2.6696,-2.6696,-2.6449,-2.6429,-2.6514,-2.6553,-2.6633,-2.6693,-2.672,-2.6798,-2.6833,-2.6866,-2.6868,-2.6793,-2.6795,-2.6789,-2.6769,-2.6862,-2.6862,-2.6862,-2.6862,-2.6497,-2.65,-2.6593,-2.6654,-2.6717,-2.675,-2.6846,-2.6892,-2.6936,-2.696,-2.6949,-2.6925,-2.6917,-2.6924,-2.6914,-2.6896,-2.7019,-2.7019,-2.7019,-2.6564,-2.6575,-2.6652,-2.6696,-2.676,-2.6814,-2.6905,-2.6975,-2.7021,-2.7026,-2.6979,-2.6972,-2.6932,-2.6918,-2.6922,-2.6907,-2.6873,0,0]}]]